GW6683 Weather Reports


Display with metric or nautical units.
time (UTC)temp
F
wind
direction
speed
MPH
gust
MPH
rain 1hr
in
rain 24hr
in
rain mn
in
humidity
%
barometer
mb
20260505205253 81 34 0.0 0.0 0.00 0.06 0.06 92 1011.2
20260505204749 80 81 1.0 3.0 0.00 0.06 0.06 92 1011.2
20260505204247 80 87 0.0 0.0 0.00 0.06 0.06 93 1011.2
20260505203744 80 87 1.0 2.0 0.00 0.06 0.06 92 1011.2
20260505203241 80 23 1.0 2.0 0.00 0.06 0.06 92 1010.8
20260505202736 80 23 0.0 0.0 0.00 0.06 0.06 91 1010.8
20260505202233 80 23 0.0 2.0 0.00 0.06 0.06 91 1010.8
20260505201729 80 23 0.0 0.0 0.00 0.06 0.06 91 1010.8
20260505201227 80 23 1.0 4.0 0.00 0.06 0.06 92 1010.8
20260505200725 80 23 0.0 0.0 0.00 0.06 0.06 92 1010.8
20260505200222 80 86 1.0 3.0 0.00 0.06 0.06 92 1010.8
20260505195717 80 27 0.0 0.0 0.00 0.06 0.06 93 1010.8
20260505195215 80 27 0.0 0.0 0.00 0.06 0.06 93 1010.5
20260505194712 80 49 1.0 4.0 0.00 0.06 0.06 93 1010.5
20260505194209 79 66 0.0 0.0 0.00 0.06 0.06 94 1010.5
20260505193704 79 66 0.0 0.0 0.00 0.06 0.06 94 1010.5
20260505193202 79 66 1.0 2.0 0.00 0.06 0.06 94 1010.5
20260505192701 79 66 1.0 3.0 0.00 0.06 0.06 95 1010.5
20260505192158 79 66 0.0 0.0 0.00 0.06 0.06 94 1010.5
20260505191656 80 66 0.0 0.0 0.00 0.06 0.06 93 1010.5
20260505191154 80 66 1.0 2.0 0.00 0.06 0.06 93 1010.5
20260505190650 79 66 0.0 0.0 0.00 0.06 0.06 94 1010.2
20260505190149 79 36 0.0 2.0 0.00 0.06 0.06 95 1010.2
20260505185646 79 36 0.0 0.0 0.00 0.06 0.06 95 1010.5
20260505185143 79 36 0.0 0.0 0.00 0.06 0.06 95 1010.2
20260505184639 79 36 0.0 0.0 0.00 0.06 0.06 95 1010.2
20260505184136 79 36 0.0 0.0 0.00 0.06 0.06 95 1010.2
20260505183633 79 36 3.0 5.0 0.00 0.06 0.06 94 1010.2
20260505183131 79 65 0.0 2.0 0.00 0.06 0.06 95 1010.2
20260505182627 79 65 1.0 2.0 0.00 0.06 0.06 95 1010.2
20260505182124 79 67 3.0 7.0 0.00 0.06 0.06 96 1010.2
20260505181620 79 59 0.0 0.0 0.00 0.06 0.06 96 1010.2
20260505181118 79 59 0.0 2.0 0.00 0.06 0.06 96 1010.2
20260505180614 79 59 0.0 0.0 0.00 0.06 0.06 96 1010.2
20260505180112 79 59 2.0 4.0 0.00 0.06 0.06 96 1010.2
20260505175607 79 47 0.0 0.0 0.00 0.06 0.06 95 1010.2
20260505175104 79 28 2.0 4.0 0.00 0.06 0.06 96 1010.2
20260505174600 79 71 2.0 3.0 0.00 0.06 0.06 96 1010.2
20260505174056 79 71 3.0 5.0 0.00 0.06 0.06 96 1010.2
20260505173553 79 79 0.0 0.0 0.00 0.06 0.06 96 1010.2
20260505173050 79 62 2.0 3.0 0.00 0.06 0.06 97 1010.2
20260505172548 79 71 1.0 2.0 0.00 0.06 0.06 97 1010.2
20260505172044 79 71 0.0 2.0 0.00 0.06 0.06 97 1010.5
20260505171539 79 71 0.0 0.0 0.00 0.06 0.06 97 1010.5
20260505171036 79 69 2.0 5.0 0.00 0.06 0.06 97 1010.5
20260505170533 79 75 0.0 2.0 0.00 0.06 0.06 97 1010.5
20260505170029 79 75 0.0 2.0 0.00 0.06 0.06 97 1010.5
20260505165525 79 75 0.0 0.0 0.00 0.05 0.05 97 1010.5
20260505165020 79 75 1.0 2.0 0.00 0.05 0.05 97 1010.5
20260505164517 79 61 2.0 5.0 0.00 0.05 0.05 97 1010.5
20260505164015 79 45 0.0 3.0 0.00 0.05 0.05 97 1010.5
20260505163513 79 67 1.0 2.0 0.00 0.05 0.05 97 1010.5
20260505163010 79 67 1.0 2.0 0.00 0.05 0.05 97 1010.5
20260505162503 79 67 0.0 1.0 0.00 0.04 0.04 96 1010.5
20260505162000 79 75 0.0 2.0 0.00 0.03 0.03 96 1010.5
20260505161456 78 75 0.0 0.0 0.00 0.03 0.03 97 1010.5
20260505160953 78 75 0.0 2.0 0.00 0.03 0.03 97 1010.5
20260505160452 78 75 0.0 2.0 0.00 0.03 0.03 97 1010.8
20260505152928 79 75 2.0 4.0 0.00 0.03 0.03 96 1010.8
20260505152426 78 75 0.0 0.0 0.00 0.03 0.03 96 1010.8
20260505151925 78 61 2.0 4.0 0.00 0.03 0.03 96 1010.8
20260505151422 78 61 2.0 3.0 0.00 0.03 0.03 96 1010.8
20260505150919 78 54 2.0 4.0 0.00 0.03 0.03 96 1010.8
20260505150416 78 71 2.0 4.0 0.00 0.03 0.03 97 1010.8
20260505140346 78 80 1.0 3.0 0.00 0.02 0.02 96 1011.9
20260505130309 78 77 0.0 3.0 0.00 0.00 0.00 96 1012.9
20260505124759 78 56 1.0 3.0 0.00 0.56 0.56 97 1013.2
20260505124256 78 74 1.0 4.0 0.00 0.56 0.56 96 1013.2
20260505123752 78 56 3.0 9.0 0.00 0.56 0.56 97 1012.9
20260505123249 78 59 2.0 4.0 0.00 0.56 0.56 97 1013.2
20260505122745 78 59 2.0 4.0 0.00 0.56 0.56 97 1013.2
20260505122242 78 69 3.0 5.0 0.00 0.56 0.56 97 1013.2
20260505121739 79 59 3.0 5.0 0.00 0.55 0.55 96 1013.6
20260505121236 79 66 3.0 7.0 0.00 0.54 0.54 96 1013.6
20260505120732 79 43 4.0 7.0 0.00 0.54 0.54 96 1013.6
20260505120228 79 49 5.0 10.0 0.00 0.54 0.54 96 1013.6
20260505115727 79 71 5.0 9.0 0.00 0.54 0.54 96 1013.6
20260505115225 79 61 2.0 3.0 0.00 0.54 0.54 97 1013.6
20260505114722 79 58 3.0 6.0 0.00 0.54 0.54 96 1013.6
20260505114218 79 67 2.0 4.0 0.00 0.53 0.53 96 1013.6
20260505113714 79 80 4.0 7.0 0.00 0.53 0.53 96 1013.6
20260505113211 79 53 0.0 5.0 0.00 0.52 0.52 96 1013.6
20260505112708 79 70 1.0 3.0 0.00 0.52 0.52 96 1013.6
20260505112206 79 65 0.0 2.0 0.47 0.51 0.51 95 1013.6
20260505111705 80 54 2.0 6.0 0.00 0.47 0.47 94 1013.6
20260505111201 80 55 3.0 4.0 0.00 0.47 0.47 93 1013.6
20260505110658 80 52 2.0 3.0 0.00 0.47 0.47 94 1013.6
20260505110155 79 37 2.0 4.0 0.00 0.46 0.46 93 1013.2
20260505102131 79 77 2.0 7.0 0.00 0.46 0.46 94 1013.2
20260505101629 79 60 3.0 6.0 0.00 0.46 0.46 95 1013.2
20260505101125 79 32 2.0 3.0 0.00 0.46 0.46 95 1012.9
20260505100621 79 76 1.0 3.0 0.00 0.46 0.46 95 1012.9
20260505100119 79 58 3.0 6.0 0.00 0.46 0.46 95 1012.9
20260505095615 79 58 3.0 4.0 0.00 0.46 0.46 95 1012.9
20260505095111 79 68 4.0 6.0 0.00 0.46 0.46 95 1012.9
20260505094608 79 85 3.0 7.0 0.00 0.46 0.46 96 1012.9
20260505094104 79 78 3.0 7.0 0.00 0.46 0.46 96 1012.9
20260505093600 79 65 3.0 6.0 0.00 0.46 0.46 96 1012.5
20260505093058 79 110 2.0 3.0 0.00 0.46 0.46 96 1012.9
20260505092555 79 77 1.0 3.0 0.00 0.46 0.46 96 1012.5
20260505092053 80 80 2.0 5.0 0.00 0.46 0.46 95 1012.5
20260505091550 80 53 1.0 4.0 0.00 0.46 0.46 95 1012.5
20260505091049 80 72 6.0 11.0 0.00 0.45 0.45 94 1012.5
20260505090546 80 65 5.0 9.0 0.00 0.41 0.41 94 1012.2
20260505090044 80 79 2.0 4.0 0.00 0.41 0.41 94 1011.9
20260505085541 80 57 3.0 4.0 0.00 0.41 0.41 94 1012.2
20260505085039 80 70 3.0 4.0 0.00 0.41 0.41 95 1011.9
20260505084537 80 65 3.0 5.0 0.00 0.41 0.41 95 1012.2
20260505084035 80 60 4.0 6.0 0.00 0.41 0.41 94 1012.2
20260505083532 80 71 3.0 5.0 0.00 0.41 0.41 95 1011.9
20260505083028 80 69 2.0 3.0 0.00 0.41 0.41 95 1011.9
20260505082524 80 77 2.0 4.0 0.00 0.41 0.41 94 1011.9
20260505082021 80 65 4.0 9.0 0.00 0.41 0.41 94 1011.9
20260505081518 81 109 2.0 5.0 1.42 0.39 0.39 92 1011.9
20260505081015 81 65 2.0 4.0 0.00 0.36 0.36 91 1011.9
20260505080511 81 83 2.0 6.0 0.00 0.36 0.36 91 1011.9
20260505080008 81 55 3.0 5.0 0.00 0.36 0.36 91 1011.5
20260505075504 81 59 3.0 8.0 0.00 0.36 0.36 91 1011.5
20260505075001 81 86 2.0 5.0 0.00 0.36 0.36 92 1011.5
20260505074458 81 60 1.0 4.0 0.00 0.36 0.36 91 1011.5
20260505073955 81 72 2.0 5.0 0.00 0.36 0.36 91 1011.2
20260505073453 82 51 3.0 5.0 0.00 0.36 0.36 91 1011.2
20260505072950 82 53 3.0 5.0 0.00 0.36 0.36 90 1011.2
20260505072446 82 54 4.0 6.0 0.00 0.36 0.36 90 1011.2
20260505071942 82 75 2.0 4.0 0.00 0.36 0.36 90 1011.2
20260505071438 82 79 2.0 3.0 0.00 0.36 0.36 90 1010.8
20260505070936 82 60 4.0 9.0 0.00 0.36 0.36 89 1010.8
20260505070433 82 126 0.0 1.0 0.00 0.36 0.36 91 1010.8
20260505065928 82 73 3.0 7.0 0.00 0.36 0.36 92 1010.8
20260505065425 82 42 1.0 3.0 0.00 0.36 0.36 93 1010.8
20260505064922 82 71 3.0 6.0 0.00 0.36 0.36 93 1010.8
20260505064419 82 90 1.0 2.0 0.00 0.36 0.36 93 1010.5
20260505063917 81 87 1.0 3.0 0.00 0.36 0.36 93 1010.5
20260505063413 82 78 3.0 5.0 0.00 0.36 0.36 92 1010.5
20260505062910 82 60 4.0 8.0 0.00 0.34 0.34 91 1010.5
20260505062407 82 66 4.0 7.0 0.00 0.34 0.34 92 1010.2
20260505061904 82 49 5.0 10.0 0.00 0.34 0.34 92 1010.2
20260505061402 82 46 4.0 7.0 0.00 0.34 0.34 92 1010.2
20260505060859 83 49 4.0 7.0 0.00 0.31 0.31 90 1010.2
20260505060356 83 46 3.0 5.0 0.00 0.30 0.30 89 1010.2
20260505055852 83 50 3.0 6.0 0.00 0.30 0.30 89 1010.2
20260505055348 83 62 3.0 6.0 0.00 0.30 0.30 90 1010.2
20260505054845 83 77 2.0 4.0 0.00 0.30 0.30 89 1010.2
20260505054343 83 61 4.0 5.0 0.00 0.30 0.30 89 1010.2
20260505053841 82 65 2.0 4.0 0.00 0.30 0.30 89 1010.2
20260505053338 82 48 4.0 8.0 0.00 0.30 0.30 89 1010.2
20260505052834 83 66 1.0 4.0 0.00 0.30 0.30 90 1010.2
20260505052331 84 89 3.0 8.0 0.00 0.30 0.30 90 1010.2
20260505051828 84 52 2.0 5.0 0.00 0.30 0.30 91 1009.8
20260505051325 83 76 3.0 7.0 0.00 0.30 0.30 91 1009.8
20260505050823 83 83 2.0 4.0 0.00 0.30 0.30 92 1009.8
20260505050322 83 76 2.0 4.0 0.00 0.30 0.30 92 1010.2
20260505041752 87 62 3.0 8.0 0.00 0.21 0.21 80 1010.2
20260505041249 87 72 2.0 4.0 0.00 0.21 0.21 80 1010.2
20260505040746 86 64 3.0 7.0 0.00 0.21 0.21 80 1010.2
20260505040244 86 62 4.0 7.0 0.00 0.21 0.21 80 1010.2
20260505035741 86 58 3.0 6.0 0.00 0.21 0.21 81 1010.2
20260505035236 86 71 3.0 6.0 0.00 0.21 0.21 83 1010.2
20260505034733 86 61 4.0 5.0 0.00 0.21 0.21 82 1010.2
20260505034230 87 57 4.0 7.0 0.00 0.21 0.21 79 1010.2
20260505033727 88 64 4.0 8.0 0.00 0.21 0.21 78 1010.2
20260505033225 88 63 3.0 6.0 0.00 0.21 0.21 78 1010.2
20260505032722 88 47 5.0 8.0 0.00 0.21 0.21 78 1010.2
20260505032218 88 49 4.0 8.0 0.00 0.21 0.21 77 1010.2
20260505031716 89 60 6.0 9.0 0.00 0.21 0.21 77 1010.5
20260505031212 89 104 3.0 7.0 0.00 0.21 0.21 75 1010.5
20260505030709 90 62 4.0 8.0 0.00 0.21 0.21 76 1010.2
20260505030205 89 66 4.0 7.0 0.00 0.21 0.21 76 1010.5
20260505025701 89 336 0.0 6.0 0.00 0.21 0.21 76 1010.5
20260505025159 89 67 2.0 7.0 0.00 0.21 0.21 76 1010.5
20260505024657 89 101 3.0 6.0 0.00 0.21 0.21 76 1010.5
20260505024154 89 57 2.0 6.0 0.00 0.21 0.21 77 1010.8
20260505023651 88 69 3.0 5.0 0.00 0.21 0.21 77 1010.5
20260505023149 88 52 3.0 7.0 0.00 0.21 0.21 78 1010.5
20260505022646 88 76 2.0 4.0 0.00 0.21 0.21 77 1010.5
20260505022143 88 71 2.0 4.0 0.00 0.21 0.21 78 1010.8
20260505021639 87 56 3.0 7.0 0.00 0.21 0.21 79 1010.8
20260505021136 87 62 3.0 4.0 0.00 0.21 0.21 79 1010.8
20260505020632 87 56 3.0 8.0 0.00 0.21 0.21 79 1010.8
20260505020128 87 91 5.0 11.0 0.00 0.21 0.21 79 1010.8
20260505015625 87 63 1.0 3.0 0.00 0.21 0.21 81 1010.8
20260505015122 87 96 3.0 6.0 0.00 0.21 0.21 80 1010.8
20260505014619 87 49 5.0 8.0 0.00 0.21 0.21 80 1010.8
20260505014116 87 48 1.0 3.0 0.00 0.21 0.21 81 1010.8
20260505013613 86 67 5.0 8.0 0.00 0.21 0.21 81 1010.8
20260505013110 86 41 6.0 12.0 0.00 0.21 0.21 81 1010.8
20260505012608 86 62 4.0 9.0 0.00 0.21 0.21 80 1010.8
20260505012105 86 48 4.0 6.0 0.00 0.21 0.21 80 1010.8
20260505011600 86 75 4.0 12.0 0.00 0.21 0.21 81 1011.2
20260505011058 85 36 1.0 4.0 0.00 0.21 0.21 80 1011.2
20260505010559 86 64 3.0 10.0 0.00 0.21 0.21 80 1010.8
20260505010055 85 48 2.0 4.0 0.00 0.21 0.21 80 1011.2
20260505005552 85 70 4.0 9.0 0.00 0.21 0.21 81 1010.8
20260505005049 85 76 4.0 8.0 0.00 0.21 0.21 82 1011.2
20260505004546 85 38 2.0 3.0 0.00 0.21 0.21 82 1011.2
20260505004043 84 60 4.0 7.0 0.00 0.21 0.21 82 1010.8
20260505003540 84 60 7.0 11.0 0.00 0.21 0.21 82 1011.2
20260505003037 84 57 4.0 7.0 0.00 0.21 0.21 82 1011.2
20260505002538 84 63 4.0 6.0 0.00 0.21 0.21 82 1011.2
20260505002037 84 77 5.0 9.0 0.00 0.21 0.21 83 1010.8
20260505001534 84 63 6.0 10.0 0.00 0.21 0.21 83 1010.8
20260505001031 84 65 6.0 9.0 0.00 0.21 0.21 83 1010.8
20260505000529 84 60 7.0 17.0 0.00 0.21 0.21 83 1010.8
20260505000026 84 62 4.0 7.0 0.00 0.21 0.21 85 1010.8
20260504235523 84 73 4.0 10.0 0.00 0.21 0.21 86 1010.8
20260504235019 84 44 2.0 5.0 0.00 0.21 0.21 87 1010.8
20260504234516 84 63 5.0 11.0 0.00 0.21 0.21 87 1010.8
20260504234013 84 53 4.0 5.0 0.00 0.21 0.21 87 1010.8
20260504233508 84 61 6.0 11.0 0.00 0.21 0.21 87 1010.8
20260504233006 83 59 4.0 9.0 0.00 0.21 0.21 88 1010.8
20260504232503 83 70 6.0 13.0 0.00 0.21 0.21 88 1010.8
20260504232000 83 58 6.0 11.0 0.00 0.21 0.21 88 1010.8
20260504231456 83 63 6.0 11.0 0.00 0.21 0.21 89 1010.8
20260504230953 83 71 6.0 14.0 0.00 0.21 0.21 88 1010.8
20260504230449 83 68 6.0 11.0 0.00 0.21 0.21 88 1010.8
20260504225948 83 60 7.0 11.0 0.00 0.21 0.21 88 1010.8
20260504225444 83 54 4.0 9.0 0.00 0.21 0.21 88 1010.8
20260504224942 83 68 7.0 11.0 0.00 0.21 0.21 87 1010.8
20260504224438 83 50 6.0 10.0 0.00 0.21 0.21 87 1010.8
20260504223936 82 78 6.0 12.0 0.00 0.21 0.21 88 1010.8
20260504223431 82 67 6.0 13.0 0.00 0.21 0.21 88 1010.8
20260504222927 82 57 7.0 11.0 0.00 0.21 0.21 87 1010.5
20260504222425 82 60 8.0 13.0 0.00 0.21 0.21 87 1010.5
20260504221923 82 59 3.0 6.0 0.00 0.21 0.21 88 1010.5
20260504221419 82 72 3.0 5.0 0.00 0.21 0.21 89 1010.8
20260504220916 82 62 4.0 7.0 0.00 0.21 0.21 89 1010.5
20260504220413 82 63 9.0 14.0 0.00 0.21 0.21 89 1010.5
20260504215910 82 56 5.0 8.0 0.00 0.21 0.21 89 1010.5
20260504215407 82 60 5.0 11.0 0.00 0.21 0.21 89 1010.2
20260504214903 82 62 6.0 9.0 0.00 0.21 0.21 89 1010.5
20260504214400 82 67 7.0 13.0 0.00 0.21 0.21 89 1010.5
20260504213856 82 71 5.0 8.0 0.00 0.21 0.21 89 1010.5
20260504213352 82 60 6.0 16.0 0.00 0.21 0.21 90 1010.5
20260504212850 81 63 5.0 8.0 0.00 0.21 0.21 90 1010.5
20260504212346 81 79 5.0 10.0 0.00 0.21 0.21 91 1010.5
20260504211844 81 71 7.0 16.0 0.00 0.21 0.21 92 1010.5
20260504211339 81 64 7.0 16.0 0.00 0.21 0.21 92 1010.5
20260504210837 81 61 7.0 11.0 0.00 0.21 0.21 91 1010.5
20260504210334 81 48 3.0 5.0 0.00 0.21 0.21 91 1010.8
20260504205831 81 52 4.0 7.0 0.00 0.21 0.21 92 1010.5
20260504205329 80 58 4.0 7.0 0.00 0.21 0.21 93 1010.5